Location: ??????????
(31.2156°N, 29.9553°E)
Time: 09:08:15
(UTC+00:00)

Cosmos 192 - Pass Details

Date: 03 March 2021
Orbit: 700 x 714 km, 74.0° (Epoch: 15 April)

Event Time Altitude Azimuth Distance (km) Brightness Sun altitude
Rises 17:31:20 0° 197° (SSW) 3,068 7.8 -20.3°
Reaches altitude 10° 17:33:39 10° 198° (SSW) 2,154 7.0 -20.8°
Maximum altitude 17:38:30 82° 286° (WNW) 712 4.3 -21.8°
Drops below altitude 10° 17:43:25 10° 14° (NNE) 2,171 6.8 -22.9°
Sets 17:45:44 0° 16° (NNE) 3,094 7.6 -23.4°
